Location: ??? ????
(38.0580°N, 23.1536°E)
Time: 14:14:12
(UTC+00:00)

Cosmos 1726 Rocket - Pass Details

Date: 13 December 2025
Orbit: 553 x 663 km, 82.5° (Epoch: 17 January)

Event Time Altitude Azimuth Distance (km) Brightness Sun altitude
Rises 15:28:35 0° 169° (S) 2,982 7.3 -4.4°
Reaches altitude 10° 15:30:55 10° 163° (SSE) 2,075 6.4 -4.8°
Maximum altitude 15:35:18 43° 92° (E) 923 4.1 -5.6°
Drops below altitude 10° 15:39:40 10° 21° (NNE) 2,066 5.8 -6.3°
Sets 15:41:59 0° 15° (NNE) 2,969 6.7 -6.8°
